Regional Weather Roundup
Issued by NWS

Home | Current Version | Previous Version | Text Only | Print | Product List | Glossary On
Versions: 1 2 3 4 5 6 7 8 9 10 11 12 13 14 15 16 17 18 19 20 21 22 23 24 25 26 27 28 29 30 31 32 33 34 35 36 37 38 39 40 41 42 43 44 45 46 47 48 49 50
000
ASUS44 KJAN 272210
RWRMS

MISSISSIPPI HOURLY WEATHER ROUNDUP
NATIONAL WEATHER SERVICE JACKSON MS
500 PM CDT SUN MAY 27 2018

NOTE: "FAIR: INDICATES FEW OR NO CLOUDS BELOW 12,000 FEET WITH NO
SIGNIFICANT WEATHER AND/OR OBSTRUCTIONS TO VISIBILITY.

MSZ001>002-007>008-010>013-018>021-025>028-034>036-272300-
NORTHWEST MISSISSIPPI

CITY           SKY/WX    TMP DP  RH WIND       PRES   REMARKS
BATESVILLE       N/A    N/A N/A N/A MISG        N/A
CLARKSDALE     SUNNY     84  75  74 NE5       29.86S HX  92
CLEVELAND      FAIR      89  68  50 CALM      29.83F HX  92
GREENWOOD      FAIR      86  72  62 N9        29.82F HX  92
GREENVILLE     FAIR      88  67  49 CALM      29.82F HX  91
OLIVE BRANCH   PTSUNNY   75  72  88 CALM      29.87S
TUNICA         DRIZZLE   72  68  88 CALM      29.86F
WINONA           N/A     76  75  96 NE3       29.84S
$$

MSZ003>006-009-014>017-022>024-029>033-037>039-272300-
NORTHEAST MISSISSIPPI

CITY           SKY/WX    TMP DP  RH WIND       PRES   REMARKS
ABERDEEN         N/A     88  81  79 CALM      29.85F HX 105
COLUMBUS AFB   FAIR      85  73  67 NE6       29.83F HX  92
CORINTH          N/A     72  68  88 SE5       29.88F
GOLDN TRIANGLE FAIR      87  70  56 E6        29.84F HX  92
STARKVILLE     FAIR      82  70  65 SE3       29.85S
TUPELO         FAIR      88  67  49 CALM      29.84F HX  91
$$

MSZ040-058-272300-
CENTRAL MISSISSIPPI

CITY           SKY/WX    TMP DP  RH WIND       PRES   REMARKS
JACKSON INTL   PTSUNNY   84  69  60 CALM      29.82F
JACKSON HAWKNS FAIR      85  70  60 S8        29.82F
MADISON        FAIR      84  68  58 NE3       29.82F
MERIDIAN KEY   FAIR      87  69  54 NE6       29.82F HX  91
MERIDIAN NAS   PTSUNNY   86  70  58 N6        29.83F HX  90
RAYMOND          N/A     86  72  62 CALM      29.82S HX  92
VICKSBURG VKS  PTCLDY    86  68  54 NE5         N/A
$$

MSZ059>079-272300-
SOUTH MISSISSIPPI

CITY           SKY/WX    TMP DP  RH WIND       PRES   REMARKS
COLUMBIA       FAIR      84  70  61 NE6       29.84F
HATTIESBURG    FAIR      86  69  56 N9        29.80F HX  90
LAUREL         MOCLDY    85  67  54 N5        29.81F
MCCOMB         FAIR      88  67  49 N9        29.80F HX  91
NATCHEZ        FAIR      87  69  54 NE5       29.81F HX  91
PINE BELT      FAIR     N/A N/A N/A N9        29.81F
$$

MSZ080>082-272300-
COASTAL MISSISSIPPI

CITY           SKY/WX    TMP DP  RH WIND       PRES   REMARKS
BAY ST LOUIS   MOSUNNY   88  68  51 N9        29.77F HX  91
BILOXI         FAIR      88  66  47 NE12      29.75F HX  91
PASCAGOULA     FAIR      89  66  46 MISG      29.75F HX  91
GULFPORT       FAIR      90  66  45 NE9       29.75F HX  92
$$

LAZ007>009-015>016-023>026-272300-
NORTHEAST LOUISIANA

CITY           SKY/WX    TMP DP  RH WIND       PRES   REMARKS
BASTROP        FAIR      88  69  54 E5        29.83F HX  92
TALLULAH/VBURG FAIR      88  71  57 NE6       29.81F HX  94
VIDALIA        FAIR      87  70  57 N8        29.80F HX  92
$$



USA.gov is the U.S. government's official web portal to all federal, state and local government web resources and services.